Overview Statistics Trail Chart Weather Telemetry Raw packets
 

This is the latest recevied weather packets stored in our database for station/object KA1AL. If no packets are shown the sender has not sent any weather packets the latest 10 day(s).

<< 46 47 48 49 50 51 52 >>
Time Temp. Humidity Pressure Rain* Wind** Luminosity Snow
1777375716 5° C 81% 1023.6 hPa 0 mm - 81 W/m² -
1777375412 5° C 80% 1023.7 hPa 0 mm - 56 W/m² -
1777375109 5° C 81% 1023.6 hPa 0 mm - 63 W/m² -
1777374808 5° C 80% 1023.3 hPa 0 mm - 48 W/m² -
1777374505 5° C 83% 1023.3 hPa 0 mm - 42 W/m² -
1777374202 5° C 83% 1023.3 hPa 0 mm - 39 W/m² -
1777373897 4.44° C 85% 1023.6 hPa 0 mm - 39 W/m² -
1777373595 3.89° C 88% 1023.7 hPa 0 mm - 36 W/m² -
1777373291 3.89° C 88% 1023.5 hPa 0 mm - 35 W/m² -
1777372986 3.89° C 90% 1023.3 hPa 0 mm - 35 W/m² -
1777371473 3.33° C 90% 1023.7 hPa 0 mm - 21 W/m² -
1777371168 3.33° C 90% 1023.6 hPa 0 mm - 21 W/m² -
1777370865 3.33° C 89% 1023.6 hPa 0 mm - 19 W/m² -
1777370562 2.78° C 90% 1023.8 hPa 0 mm - 16 W/m² -
1777370257 2.22° C 91% 1023.6 hPa 0 mm - 14 W/m² -
1777369953 2.78° C 90% 1023.8 hPa 0 mm - 10 W/m² -
1777369650 2.78° C 88% 1023.8 hPa 0 mm - 8 W/m² -
1777366625 3.89° C 85% 1023.3 hPa 0 mm - 0 W/m² -
1777366325 3.89° C 85% 1023.3 hPa 0 mm - 0 W/m² -
1777366021 3.89° C 86% 1023.1 hPa 0 mm - 0 W/m² -
1777365718 3.33° C 89% 1023.3 hPa 0 mm - 0 W/m² -
1777365414 2.78° C 91% 1023.6 hPa 0 mm - 0 W/m² -
1777365111 2.78° C 91% 1023.1 hPa 0 mm - 0 W/m² -
1777364807 2.78° C 94% 1023.3 hPa 0 mm - 0 W/m² -
1777364502 2.78° C 94% 1023.5 hPa 0 mm - 0 W/m² -

* Rain latest hour (hover to see other rain measurements)
** Current wind speed in m/s (hover to see current wind gust speed)